Regional Weather Roundup
Issued by NWS

Home | Current Version | Previous Version | Graphics & Text | Print | Product List | Glossary Off
Versions: 1 2 3 4 5 6 7 8 9 10 11 12 13 14 15 16 17 18 19 20 21 22 23 24 25 26 27 28 29 30 31 32 33 34 35 36 37 38 39 40 41 42 43 44 45 46 47 48 49 50

000
ASUS43 KMKX 271500
RWRWI

WISCONSIN REGIONAL WEATHER ROUNDUP
NATIONAL WEATHER SERVICE MILWAUKEE/SULLIVAN WI
1000 AM CDT SAT AUG 27 2016

NOTE: "FAIR" INDICATES FEW OR NO CLOUDS BELOW 12,000 FEET WITH NO
SIGNIFICANT WEATHER AND/OR OBSTRUCTIONS TO VISIBILITY.

WIZ001-002-006>008-014>016-023>028-271600-
NORTHWEST WISCONSIN

CITY           SKY/WX    TMP DP  RH WIND       PRES   REMARKS
SUPERIOR ARPT  CLOUDY    63  58  86 CALM      30.10S
ASHLAND        MOSUNNY   66  57  72 CALM      30.12S
HAYWARD        CLOUDY    63  55  75 CALM      30.11F
SIREN          CLOUDY    62  57  83 SE3       30.10F
CUMBERLAND     LGT RAIN  61  55  82 CALM      30.11S
RICE LAKE      CLOUDY    63  57  83 E5        30.12S
CHETEK         NOT AVBL
LADYSMITH      CLOUDY    64  57  78 E6        30.13F
EAU CLAIRE     CLOUDY    67  58  72 SE7       30.08F
MENOMONIE      CLOUDY    66  59  76 E8        30.08F
NEW RICHMOND   LGT RAIN  62  60  94 E5        30.09S
OSCEOLA        CLOUDY    63  63 100 E6        30.11F
$$

WIZ003>005-009-010-017-018-271600-
NORTH CENTRAL WISCONSIN

CITY           SKY/WX    TMP DP  RH WIND       PRES   REMARKS
MANITOWISH WTR NOT AVBL
ARBOR VITAE    CLOUDY    64  56  75 SE7       30.14F
WOODRUFF       CLOUDY    64  56  75 SE7       30.14F
RHINELANDER    MOSUNNY   64  58  80 SE8       30.15S
EAGLE RIVER    CLOUDY    65  53  66 SE5       30.15R
LAND O LAKES   CLOUDY    64  56  75 S3        30.15S
PHILLIPS       CLOUDY    63  56  80 S6        30.13S
TOMAHAWK       MOSUNNY   62  56  82 CALM      30.15R
MEDFORD        SUNNY     64  61  90 SE6       30.12F
MERRILL        CLOUDY    64  58  80 CALM      30.13F
$$

WIZ029-030-035-036-043>047-271600-
CENTRAL WISCONSIN

CITY           SKY/WX    TMP DP  RH WIND       PRES   REMARKS
WAUSAU         CLOUDY    63  58  83 SE10      30.11F
MOSINEE        NOT AVBL
MARSHFIELD     CLOUDY    64  57  78 SE12      30.10F
STEVENS POINT  CLOUDY    59  58  95 E8        30.13F
WAUPACA        LGT RAIN  64  63  97 E6        30.13F
WAUTOMA        CLOUDY    62  60  93 E8        30.11F
WISC RAPIDS    LGT RAIN  62  61  96 E9        30.11F
CAMP DOUGLAS   NOT AVBL
$$

WIZ011>013-019>022-031-037>040-048>050-271600-
NORTHEAST WISCONSIN

CITY           SKY/WX    TMP DP  RH WIND       PRES   REMARKS
ANTIGO         CLOUDY    61  57  86 SE6       30.15S
SHAWANO        LGT RAIN  65  61  87 E5        30.14S
OCONTO         NOT AVBL
STURGEON BAY   LGT RAIN  61  57  87 E7        30.15S
GREEN BAY      LGT RAIN  62  62 100 E8        30.12F
MANITOWOC      HVY RAIN  61  57  88 CALM      30.14F FOG
APPLETON       LGT RAIN  61  61 100 E7        30.11F
CLINTONVILLE   DRIZZLE   63  59  88 SE6       30.13F
OSHKOSH        LGT RAIN  64  61  90 E9        30.09F
$$

WIZ032>034-041-042-053>061-271600-
SOUTHWEST WISCONSIN

CITY           SKY/WX    TMP DP  RH WIND       PRES   REMARKS
LA CROSSE      CLOUDY    66  61  84 SE9       30.06S
SPARTA         CLOUDY    61  60  95 E7        30.09S
VIROQUA        CLOUDY    63  63 100 SE8G17    30.06F
BOSCOBEL       CLOUDY    66  64  93 VRB3      30.06F
PRAIRIE DU CHI CLOUDY    64  62  96 E3        30.05S
PLATTEVILLE    CLOUDY    64  64 100 E9        30.05F
$$

WIZ056-057-062-063-064-067-068-271600-
SOUTH CENTRAL WISCONSIN

CITY           SKY/WX    TMP DP  RH WIND       PRES   REMARKS
REEDSBURG      NOT AVBL
BARABOO/DELLS  DRIZZLE   62  60  94 E7        30.09S
LONE ROCK      HVY RAIN  63  63 100 E10       30.07F FOG
MINERAL POINT  LGT RAIN  63  63 100 E9        30.06S
MADISON        CLOUDY    63  61  93 E8        30.06F
MIDDLETON      CLOUDY    63  63 100 E5        30.08F
WATERTOWN      CLOUDY    63  63 100 E6        30.08F
MONROE         CLOUDY    64  63  94 E5        30.05F FOG
JANESVILLE     CLOUDY    70  70 100 E7        30.05F
$$

WIZ051-052-058>065-066-070>072-271600-
SOUTHEAST WISCONSIN

CITY           SKY/WX    TMP DP  RH WIND       PRES   REMARKS
MILWAUKEE      CLOUDY    67  64  90 N8        30.07F
WAUKESHA       CLOUDY    61  61 100 NE6       30.10F
MILWAUKEE/TIMM CLOUDY    63  57  82 NE6       30.09F
RACINE         CLOUDY    70  66  87 N5        30.08S
BURLINGTON     CLOUDY    66  64  92 NE6       30.07F
KENOSHA        CLOUDY    72  68  87 S7        30.07S
FOND DU LAC    HVY RAIN  62  60  93 E8        30.10F FOG
SHEBOYGAN      RAIN      61  59  93 NE8       30.11F FOG
WEST BEND      CLOUDY    61  59  94 NE3       30.10F
JUNEAU         CLOUDY    61  60  95 NE9       30.09F
$$

LSZ147-162-271600-
LAKE SUPERIOR

STATION/POSITION TIME  TEMP    WIND        PRES    WAVE
                       AIR SEA DIR/SP/G            HT/PER
                 (UTC) (F)     (DEG/KT/KT) (MB)    (FT/S)
W MID LAKE BUOY  1350   66 67  140/  8/  8 1019.3F   1/ 3
DEVILS ISLAND    1400   66     160/  2/  5 1019.6F
PORT WING        1440   66     110/  3/  5 1019.3F
SAXON HARBOR     1400   65     180/  2/  6 1019.6R
$$

LMZ867-665-643>646-271600-
LAKE MICHIGAN

STATION/POSITION TIME  TEMP    WIND        PRES    WAVE
                       AIR SEA DIR/SP/G            HT/PER
                 (UTC) (F)     (DEG/KT/KT) (MB)    (FT/S)
CHAMBERS ISLAND  1400   65      CALM  /  2 1021.0R
S GREEN BAY BUOY 1430   64 71  120/ 12/ 14 1020.1S
N MID LAKE BUOY  1350   67 69  160/ 10/ 14 1020.5R   1/ 3
NORTHPORT PIER   1400   65     200/  2/  5 1021.0R
SISTER BAY       1437   62     180/  7/  9   N/A
KEWAUNEE LAKESHO 1400   59     170/  6/  6 1020.4R
SHEBOYGAN LAKESH 1400   60      50/  7/  8 1019.8F
PORT WASHINGTON  1400   61      40/  8/ 10 1020.0
ATWATER BUOY     1400   64      30/ 12/ 16   N/A
MILWAUKEE LAKESH 1410   63     330/  7/  8   N/A
S MID LAKE BUOY  1350   72 74  140/ 10/ 14 1017.5F   2/ 4
KENOSHA   LAKESH 1400   70     210/  3/  8 1017.6F
$$

TC  - TEMPERATURE IN CELSIUS
VSB - VISIBILITY IN STATUTE MILES
WCI - WIND CHILL INDEX
HX  - HEAT INDEX





USA.gov is the U.S. government's official web portal to all federal, state and local government web resources and services.